{"data":{"norad_id":56839,"epoch":"2026-05-25T02:17:57.368832Z","epoch_age_seconds":56801,"freshness":"FRESH","line1":"1 56839U 23079S   26145.09580288  .00000728  00000+0  35988-4 0  9993","line2":"2 56839  43.0065  35.5285 0001301 255.6733 104.3975 15.27586471164573","mean_motion":15.27586471,"eccentricity":0.0001301,"inclination_deg":43.0065,"raan_deg":35.5285,"arg_perigee_deg":255.6733,"mean_anomaly_deg":104.3975,"bstar":3.5988e-5,"rev_number":16457,"period_min":94.266349390836,"perigee_km":482.1370818159,"apogee_km":483.92235739634,"semimajor_km":6861.1667196061,"source":"CELESTRAK","updated_at":"2026-05-25T13:38:18.164967Z"}}